N5817S MYGH-KPBI

Flight info

Callsign N5817S
Flight time N/A
Altitude 16000
Route MYGF
Aircraft EVIC/L-VGDW/C

Departure

Time N/A
Airport MYGH

Arrival

Time 2026-05-08 03:42
Airport Palm Beach International Airport (KPBI)
Time Latitude Longitude Altitude Speed Heading
2026-05-08 02:38 26.51340 -77.08219 13 ft 0 kts 119°
2026-05-08 02:41 26.51339 -77.08214 13 ft 1 kts 106°
2026-05-08 02:41 26.51327 -77.08197 13 ft 4 kts 152°
2026-05-08 02:42 26.51278 -77.08196 13 ft 9 kts 184°
2026-05-08 02:42 26.51199 -77.08201 13 ft 12 kts 182°
2026-05-08 02:42 26.51148 -77.08221 13 ft 9 kts 241°
2026-05-08 02:42 26.51141 -77.08311 11 ft 13 kts 272°
2026-05-08 02:43 26.51140 -77.08429 11 ft 16 kts 268°
2026-05-08 02:43 26.51135 -77.08571 10 ft 19 kts 267°
2026-05-08 02:43 26.51133 -77.08733 10 ft 22 kts 269°
2026-05-08 02:43 26.51127 -77.08914 10 ft 24 kts 270°
2026-05-08 02:44 26.51121 -77.09116 10 ft 27 kts 268°
2026-05-08 02:44 26.51118 -77.09327 10 ft 23 kts 264°
2026-05-08 02:44 26.51107 -77.09457 9 ft 8 kts 239°
2026-05-08 02:44 26.51074 -77.09477 9 ft 0 kts 179°
2026-05-08 02:45 26.51066 -77.09476 8 ft 4 kts 178°
2026-05-08 02:45 26.51007 -77.09473 7 ft 12 kts 157°
2026-05-08 02:46 26.50993 -77.09309 7 ft 45 kts 89°
2026-05-08 02:46 26.51011 -77.08556 80 ft 143 kts 89°
2026-05-08 02:46 26.50990 -77.07549 1346 ft 144 kts 91°
2026-05-08 02:46 26.50866 -77.06390 2482 ft 162 kts 107°
2026-05-08 02:47 26.50355 -77.05264 3495 ft 184 kts 118°
2026-05-08 02:47 26.49643 -77.04018 4581 ft 196 kts 127°
2026-05-08 02:47 26.48688 -77.03152 6017 ft 185 kts 151°
2026-05-08 02:47 26.47403 -77.02694 6799 ft 208 kts 168°
2026-05-08 02:48 26.46056 -77.02370 8121 ft 200 kts 169°
2026-05-08 02:48 26.44702 -77.02066 9068 ft 210 kts 170°
2026-05-08 02:48 26.43231 -77.01742 9889 ft 224 kts 169°
2026-05-08 02:48 26.41701 -77.01447 10779 ft 231 kts 172°
2026-05-08 02:49 26.40106 -77.01186 11718 ft 235 kts 173°
2026-05-08 02:49 26.38508 -77.00995 12657 ft 235 kts 180°
2026-05-08 02:49 26.36900 -77.00913 13602 ft 235 kts 181°
2026-05-08 02:49 26.35283 -77.00857 14547 ft 233 kts 182°
2026-05-08 02:50 26.33706 -77.00847 15461 ft 231 kts 182°
2026-05-08 02:50 26.32059 -77.00828 15929 ft 250 kts 182°
2026-05-08 02:50 26.30225 -77.00818 15988 ft 278 kts 183°
2026-05-08 02:50 26.28258 -77.01168 15966 ft 295 kts 204°
2026-05-08 02:51 26.26683 -77.02610 15958 ft 304 kts 234°
2026-05-08 02:51 26.25954 -77.04810 15953 ft 312 kts 263°
2026-05-08 02:51 26.26244 -77.07243 15971 ft 318 kts 285°
2026-05-08 02:51 26.26943 -77.09573 15988 ft 322 kts 288°
2026-05-08 02:52 26.27662 -77.11959 15990 ft 325 kts 288°
2026-05-08 02:52 26.28382 -77.14355 15990 ft 327 kts 288°
2026-05-08 02:52 26.29097 -77.16728 15990 ft 328 kts 288°
2026-05-08 02:52 26.29822 -77.19135 15990 ft 328 kts 288°
2026-05-08 02:53 26.30486 -77.21581 15989 ft 328 kts 286°
2026-05-08 02:53 26.31061 -77.24049 15989 ft 329 kts 284°
2026-05-08 02:53 26.31570 -77.26510 15989 ft 329 kts 282°
2026-05-08 02:53 26.32065 -77.29013 15989 ft 326 kts 282°
2026-05-08 02:54 26.32541 -77.31425 15987 ft 320 kts 282°
2026-05-08 02:54 26.33023 -77.33858 15985 ft 317 kts 282°
2026-05-08 02:54 26.33497 -77.36249 15983 ft 315 kts 282°
2026-05-08 02:54 26.33964 -77.38596 15980 ft 314 kts 282°
2026-05-08 02:55 26.34438 -77.40984 15978 ft 313 kts 282°
2026-05-08 02:55 26.35378 -77.45700 15972 ft 312 kts 282°
2026-05-08 02:55 26.35847 -77.48052 15968 ft 312 kts 282°
2026-05-08 02:56 26.36315 -77.50394 15965 ft 312 kts 282°
2026-05-08 02:56 26.36787 -77.52756 15961 ft 312 kts 282°
2026-05-08 02:56 26.37257 -77.55107 15959 ft 312 kts 282°
2026-05-08 02:56 26.37730 -77.57469 15957 ft 311 kts 282°
2026-05-08 02:57 26.38205 -77.59836 15955 ft 311 kts 282°
2026-05-08 02:57 26.38660 -77.62187 15952 ft 311 kts 280°
2026-05-08 02:57 26.39053 -77.64552 15953 ft 311 kts 280°
2026-05-08 02:57 26.39444 -77.66925 15955 ft 311 kts 279°
2026-05-08 02:58 26.39836 -77.69309 15955 ft 311 kts 279°
2026-05-08 02:58 26.40222 -77.71663 15955 ft 311 kts 279°
2026-05-08 02:58 26.40609 -77.74027 15955 ft 311 kts 279°
2026-05-08 02:58 26.40999 -77.76413 15954 ft 311 kts 279°
2026-05-08 02:59 26.41387 -77.78793 15954 ft 311 kts 279°
2026-05-08 02:59 26.41770 -77.81142 15954 ft 311 kts 279°
2026-05-08 02:59 26.42158 -77.83526 15954 ft 311 kts 279°
2026-05-08 02:59 26.42544 -77.85907 15954 ft 311 kts 279°
2026-05-08 03:00 26.42927 -77.88261 15954 ft 311 kts 279°
2026-05-08 03:00 26.43313 -77.90646 15954 ft 311 kts 279°
2026-05-08 03:00 26.43698 -77.93024 15954 ft 311 kts 279°
2026-05-08 03:00 26.44081 -77.95393 15954 ft 311 kts 279°
2026-05-08 03:01 26.44466 -77.97772 15954 ft 311 kts 279°
2026-05-08 03:01 26.44847 -78.00135 15954 ft 311 kts 279°
2026-05-08 03:01 26.45231 -78.02515 15954 ft 311 kts 279°
2026-05-08 03:01 26.45615 -78.04900 15954 ft 311 kts 279°
2026-05-08 03:02 26.45994 -78.07256 15954 ft 311 kts 279°
2026-05-08 03:02 26.46376 -78.09635 15953 ft 311 kts 279°
2026-05-08 03:02 26.46756 -78.12003 15953 ft 311 kts 279°
2026-05-08 03:02 26.47138 -78.14380 15953 ft 311 kts 279°
2026-05-08 03:03 26.47520 -78.16768 15953 ft 311 kts 279°
2026-05-08 03:03 26.47901 -78.19149 15953 ft 311 kts 279°
2026-05-08 03:03 26.48282 -78.21529 15953 ft 311 kts 279°
2026-05-08 03:03 26.48658 -78.23882 15953 ft 311 kts 279°
2026-05-08 03:04 26.49040 -78.26281 15953 ft 311 kts 279°
2026-05-08 03:04 26.49414 -78.28630 15953 ft 311 kts 279°
2026-05-08 03:04 26.49793 -78.31012 15953 ft 311 kts 279°
2026-05-08 03:04 26.50173 -78.33398 15953 ft 311 kts 279°
2026-05-08 03:05 26.50550 -78.35776 15953 ft 311 kts 279°
2026-05-08 03:05 26.50927 -78.38146 15953 ft 311 kts 279°
2026-05-08 03:05 26.51303 -78.40522 15953 ft 311 kts 279°
2026-05-08 03:05 26.51680 -78.42903 15953 ft 311 kts 279°
2026-05-08 03:06 26.52056 -78.45280 15952 ft 311 kts 279°
2026-05-08 03:06 26.52432 -78.47664 15952 ft 311 kts 279°
2026-05-08 03:06 26.52803 -78.50017 15952 ft 311 kts 279°
2026-05-08 03:06 26.53179 -78.52406 15952 ft 311 kts 279°
2026-05-08 03:07 26.53555 -78.54793 15952 ft 311 kts 279°
2026-05-08 03:07 26.53925 -78.57148 15952 ft 311 kts 279°
2026-05-08 03:07 26.54302 -78.59546 15952 ft 312 kts 279°
2026-05-08 03:07 26.54675 -78.61929 15952 ft 312 kts 279°
2026-05-08 03:08 26.55044 -78.64284 15952 ft 312 kts 279°
2026-05-08 03:08 26.55418 -78.66670 15954 ft 312 kts 279°
2026-05-08 03:08 26.55792 -78.69064 15955 ft 312 kts 279°
2026-05-08 03:08 26.56050 -78.71471 15954 ft 312 kts 276°
2026-05-08 03:09 26.56275 -78.73878 15954 ft 312 kts 275°
2026-05-08 03:09 26.56500 -78.76294 15955 ft 312 kts 275°
2026-05-08 03:09 26.56723 -78.78680 15954 ft 312 kts 275°
2026-05-08 03:09 26.56948 -78.81104 15954 ft 312 kts 275°
2026-05-08 03:10 26.57173 -78.83523 15954 ft 312 kts 275°
2026-05-08 03:10 26.57394 -78.85902 15954 ft 312 kts 275°
2026-05-08 03:10 26.57620 -78.88339 15954 ft 312 kts 275°
2026-05-08 03:10 26.57841 -78.90732 15954 ft 312 kts 275°
2026-05-08 03:11 26.58065 -78.93156 15954 ft 312 kts 275°
2026-05-08 03:11 26.58284 -78.95538 15954 ft 312 kts 275°
2026-05-08 03:11 26.58507 -78.97963 15954 ft 312 kts 275°
2026-05-08 03:11 26.58728 -79.00377 15954 ft 312 kts 275°
2026-05-08 03:12 26.58949 -79.02782 15954 ft 312 kts 275°
2026-05-08 03:12 26.59169 -79.05192 15954 ft 312 kts 275°
2026-05-08 03:12 26.59390 -79.07609 15954 ft 312 kts 276°
2026-05-08 03:12 26.59608 -79.10010 15954 ft 312 kts 276°
2026-05-08 03:13 26.59828 -79.12421 15953 ft 312 kts 276°
2026-05-08 03:13 26.60047 -79.14834 15953 ft 312 kts 276°
2026-05-08 03:13 26.60263 -79.17220 15953 ft 312 kts 276°
2026-05-08 03:13 26.60483 -79.19656 15953 ft 312 kts 276°
2026-05-08 03:14 26.60699 -79.22047 15953 ft 312 kts 276°
2026-05-08 03:14 26.60918 -79.24475 15953 ft 312 kts 276°
2026-05-08 03:14 26.61136 -79.26899 15952 ft 312 kts 276°
2026-05-08 03:14 26.61350 -79.29289 15952 ft 312 kts 276°
2026-05-08 03:15 26.61567 -79.31712 15951 ft 312 kts 276°
2026-05-08 03:15 26.61781 -79.34106 15951 ft 312 kts 276°
2026-05-08 03:15 26.61999 -79.36549 15951 ft 312 kts 276°
2026-05-08 03:15 26.62211 -79.38935 15950 ft 312 kts 276°
2026-05-08 03:16 26.62428 -79.41365 15950 ft 312 kts 276°
2026-05-08 03:16 26.62639 -79.43758 15949 ft 312 kts 276°
2026-05-08 03:16 26.62853 -79.46178 15949 ft 312 kts 276°
2026-05-08 03:16 26.63067 -79.48601 15948 ft 312 kts 276°
2026-05-08 03:17 26.63281 -79.51019 15948 ft 312 kts 276°
2026-05-08 03:17 26.63494 -79.53435 15948 ft 312 kts 276°
2026-05-08 03:17 26.63704 -79.55823 15948 ft 312 kts 276°
2026-05-08 03:17 26.63918 -79.58253 15948 ft 312 kts 276°
2026-05-08 03:18 26.64129 -79.60669 15947 ft 312 kts 276°
2026-05-08 03:18 26.64340 -79.63085 15947 ft 312 kts 276°
2026-05-08 03:18 26.64548 -79.65482 15948 ft 312 kts 275°
2026-05-08 03:18 26.64760 -79.67914 15950 ft 312 kts 275°
2026-05-08 03:19 26.64970 -79.70335 15950 ft 313 kts 275°
2026-05-08 03:19 26.65178 -79.72734 15944 ft 304 kts 275°
2026-05-08 03:19 26.65376 -79.75017 15702 ft 286 kts 275°
2026-05-08 03:19 26.65562 -79.77150 15450 ft 270 kts 276°
2026-05-08 03:20 26.65739 -79.79163 15187 ft 255 kts 276°
2026-05-08 03:20 26.65910 -79.81094 14906 ft 244 kts 276°
2026-05-08 03:20 26.66076 -79.82958 14569 ft 239 kts 276°
2026-05-08 03:20 26.66242 -79.84802 14113 ft 240 kts 277°
2026-05-08 03:21 26.66406 -79.86644 13658 ft 241 kts 277°
2026-05-08 03:21 26.66572 -79.88508 13195 ft 242 kts 276°
2026-05-08 03:21 26.66720 -79.90375 12745 ft 242 kts 275°
2026-05-08 03:21 26.66728 -79.92237 12272 ft 244 kts 258°
2026-05-08 03:22 26.65820 -79.93818 11776 ft 247 kts 220°
2026-05-08 03:22 26.64246 -79.94462 11286 ft 249 kts 184°
2026-05-08 03:22 26.62582 -79.93951 10806 ft 251 kts 154°
2026-05-08 03:22 26.61042 -79.93096 10360 ft 249 kts 154°
2026-05-08 03:23 26.59508 -79.92234 9912 ft 248 kts 154°
2026-05-08 03:23 26.57966 -79.91368 9459 ft 247 kts 154°
2026-05-08 03:23 26.56444 -79.90513 9011 ft 246 kts 154°
2026-05-08 03:23 26.54926 -79.89661 8561 ft 245 kts 154°
2026-05-08 03:24 26.53409 -79.88808 8110 ft 244 kts 154°
2026-05-08 03:24 26.51906 -79.87965 7661 ft 243 kts 154°
2026-05-08 03:24 26.50345 -79.87367 7190 ft 241 kts 174°
2026-05-08 03:24 26.48685 -79.87475 6720 ft 239 kts 193°
2026-05-08 03:25 26.47341 -79.88482 6225 ft 239 kts 231°
2026-05-08 03:25 26.46768 -79.90211 5748 ft 239 kts 257°
2026-05-08 03:25 26.46655 -79.92045 5286 ft 239 kts 271°
2026-05-08 03:25 26.46818 -79.93882 4968 ft 233 kts 274°
2026-05-08 03:26 26.46975 -79.95638 5027 ft 224 kts 274°
2026-05-08 03:26 26.47131 -79.97362 5034 ft 221 kts 274°
2026-05-08 03:26 26.47283 -79.99044 5035 ft 219 kts 274°
2026-05-08 03:26 26.47437 -80.00744 5035 ft 218 kts 274°
2026-05-08 03:27 26.47589 -80.02413 5035 ft 217 kts 274°
2026-05-08 03:27 26.47742 -80.04093 5036 ft 217 kts 274°
2026-05-08 03:27 26.47895 -80.05764 5036 ft 217 kts 274°
2026-05-08 03:27 26.48048 -80.07431 5036 ft 216 kts 275°
2026-05-08 03:28 26.48201 -80.09100 5036 ft 216 kts 275°
2026-05-08 03:28 26.48355 -80.10774 5035 ft 215 kts 275°
2026-05-08 03:28 26.48557 -80.12415 5030 ft 215 kts 283°
2026-05-08 03:28 26.49148 -80.13953 5027 ft 216 kts 301°
2026-05-08 03:29 26.50166 -80.15178 5034 ft 216 kts 313°
2026-05-08 03:29 26.51237 -80.16356 5035 ft 216 kts 315°
2026-05-08 03:29 26.52318 -80.17527 5036 ft 216 kts 315°
2026-05-08 03:29 26.53384 -80.18682 5036 ft 216 kts 315°
2026-05-08 03:30 26.55547 -80.21024 5036 ft 216 kts 315°
2026-05-08 03:30 26.57710 -80.23355 5035 ft 216 kts 316°
2026-05-08 03:31 26.59903 -80.25640 5034 ft 216 kts 316°
2026-05-08 03:31 26.62098 -80.27923 5033 ft 216 kts 316°
2026-05-08 03:32 26.63205 -80.29072 4876 ft 222 kts 316°
2026-05-08 03:32 26.64394 -80.30199 4575 ft 229 kts 317°
2026-05-08 03:32 26.65606 -80.31378 4275 ft 232 kts 318°
2026-05-08 03:32 26.66835 -80.32568 3975 ft 234 kts 318°
2026-05-08 03:33 26.68056 -80.33752 3678 ft 235 kts 318°
2026-05-08 03:33 26.69414 -80.34770 3371 ft 237 kts 330°
2026-05-08 03:33 26.70948 -80.35491 3058 ft 239 kts 346°
2026-05-08 03:33 26.72558 -80.35733 2957 ft 232 kts 353°
2026-05-08 03:34 26.74142 -80.35524 2941 ft 225 kts 10°
2026-05-08 03:34 26.75569 -80.34877 2940 ft 220 kts 26°
2026-05-08 03:34 26.76976 -80.34289 2924 ft 218 kts
2026-05-08 03:34 26.78419 -80.34688 2933 ft 214 kts 339°
2026-05-08 03:35 26.79864 -80.34598 2920 ft 212 kts 24°
2026-05-08 03:35 26.80917 -80.33511 2933 ft 206 kts 49°
2026-05-08 03:35 26.81889 -80.32355 2939 ft 202 kts 47°
2026-05-08 03:35 26.82849 -80.31205 2940 ft 200 kts 48°
2026-05-08 03:36 26.83794 -80.30073 2941 ft 199 kts 47°
2026-05-08 03:36 26.84560 -80.28806 2928 ft 197 kts 74°
2026-05-08 03:36 26.84441 -80.27342 2926 ft 191 kts 118°
2026-05-08 03:36 26.83606 -80.26195 2940 ft 189 kts 133°
2026-05-08 03:37 26.82738 -80.25095 2939 ft 188 kts 133°
2026-05-08 03:37 26.81831 -80.24026 2745 ft 189 kts 137°
2026-05-08 03:37 26.80906 -80.23017 2605 ft 182 kts 139°
2026-05-08 03:37 26.80004 -80.22070 2485 ft 176 kts 139°
2026-05-08 03:38 26.79140 -80.21133 2426 ft 170 kts 137°
2026-05-08 03:38 26.78308 -80.20204 2345 ft 169 kts 137°
2026-05-08 03:38 26.77479 -80.19270 2200 ft 170 kts 137°
2026-05-08 03:38 26.76623 -80.18361 2054 ft 171 kts 140°
2026-05-08 03:39 26.75712 -80.17484 1933 ft 170 kts 141°
2026-05-08 03:39 26.74867 -80.16640 1843 ft 157 kts 140°
2026-05-08 03:39 26.74083 -80.15807 1649 ft 155 kts 137°
2026-05-08 03:39 26.73318 -80.14945 1405 ft 155 kts 136°
2026-05-08 03:40 26.72580 -80.14089 1210 ft 153 kts 138°
2026-05-08 03:40 26.71817 -80.13258 994 ft 153 kts 135°
2026-05-08 03:40 26.71148 -80.12502 1015 ft 122 kts 137°
2026-05-08 03:40 26.70526 -80.11871 761 ft 120 kts 140°
2026-05-08 03:41 26.69941 -80.11221 495 ft 118 kts 137°
2026-05-08 03:41 26.69360 -80.10581 197 ft 116 kts 137°
2026-05-08 03:41 26.68811 -80.09988 24 ft 97 kts 139°
2026-05-08 03:41 26.68391 -80.09528 14 ft 72 kts 140°
2026-05-08 03:42 26.68140 -80.09238 14 ft 23 kts 141°
2026-05-08 03:42 26.68078 -80.09212 14 ft 11 kts 189°
2026-05-08 03:42 26.68017 -80.09276 16 ft 7 kts 251°
2026-05-08 03:42 26.68004 -80.09342 17 ft 11 kts 271°
2026-05-08 03:43 26.67987 -80.09419 17 ft 5 kts 220°
2026-05-08 03:43 26.67964 -80.09445 17 ft 0 kts 245°